User: anonymous   Login
Location: Unspecified
(0.0000°N, 0.0000°E)
Time: 07:17:50
(UTC+02:00)
Language:

ARIANE 5 R/B - Orbit

View from above orbital plane
View from above orbital plane
View from above satellite
View from above satellite

Ground track
Ground track

The orbit data is extracted from the following two-line orbital elements,

1 28886U 05041C   17086.75436133 -.00000124 +00000-0 -38682-3 0  9995
2 28886 008.2570 032.1378 7186826 038.4293 106.9635 02.24334273093908
Epoch (UTC): 27 March 2017 18:06:16
Eccentricity: 0.7186826
inclination: 8.2570°
perigee height: 556 km
apogee height: 35986 km
right ascension of ascending node: 32.1378°
argument of perigee: 38.4293°
revolutions per day: 2.24334273
mean anomaly at epoch: 106.9635°
orbit number at epoch: 9390

The dashed part of the orbit path shows where the satellite is in the earth's shadow,  

DLR